Weather History for KCMH - March, 2013

Change the Weather History Date:

Sunday, March 3, 2013

  Actual Average Record
Temperature  
Mean Temperature 28 °F 37 °F  
Max Temperature 31 °F 46 °F 75 °F (1974)
Min Temperature 24 °F 29 °F 1 °F (1980)
Degree Days  
Heating Degree Days 37 28  
Month to date heating degree days 106 84  
Since 1 July heating degree days 3964 4079  
Cooling Degree Days 0 0  
Month to date cooling degree days 0 0  
Year to date cooling degree days 0 0  
Moisture  
Dew Point 17 °F    
Average Humidity 65    
Maximum Humidity 81    
Minimum Humidity 49    
Precipitation  
Precipitation 0.03 in 0.08 in 0.74 in (1951)
Month to date precipitation 0.06 0.24  
Year to date precipitation 4.13 5.22  
Snow  
Snow 0.40 in 0.20 in 3.60 in (1960)
Month to date snowfall 0.9 0.6  
Since 1 July snowfall 29.9 22.0  
Snow Depth T in    
Sea Level Pressure  
Sea Level Pressure 30.05 in    
Wind  
Wind Speed 7 mph (NW)    
Max Wind Speed 15 mph    
Max Gust Speed 21 mph    
Visibility 9 miles    
Events Snow    
T = Trace of Precipitation, MM = Missing Value Source: NWS Daily Summary

Daily Weather History Graph

Daily Weather History Graph

Search for Another Location

Airport or City:

Trip Planner

Search our weather history database for the weather conditions in past years. The results will help you decide how hot, cold, wet, or windy it might be!

Date:

Astronomy

Mar. 03, 2013 Rise Set
Actual Time 7:01 AM EST 6:25 PM EST
Civil Twilight 6:34 AM EST 6:53 PM EST
Nautical Twilight 6:03 AM EST 7:24 PM EST
Astronomical Twilight 5:31 AM EST 7:55 PM EST
Moon 12:02 AM EST (3/3) 10:15 AM EST (3/3)
Length of Visible Light 12h 18m
Length of Day
11h 24m
Waning Gibbous, 64% of the Moon is Illuminated
Mar 3
Waning Gibbous
Mar 4
Last Quarter
Mar 11
New
Mar 19
First Quarter
Mar 27
Full

Hourly Weather History & Observations

Time (EST) Temp. Windchill Dew Point Humidity Pressure Visibility Wind Dir Wind Speed Gust Speed Precip Events Conditions
12:51 AM 27.0 °F 18.7 °F 19.0 °F 72% 30.06 in 10.0 mi NW 8.1 mph - N/A   Overcast
1:16 AM 26.6 °F 16.8 °F 19.4 °F 74% 30.03 in 8.0 mi NW 10.4 mph - 0.00 in Snow Light Snow
1:51 AM 25.0 °F 16.3 °F 19.0 °F 78% 30.06 in 5.0 mi NW 8.1 mph - 0.00 in Snow Light Snow
2:51 AM 25.0 °F 16.3 °F 19.9 °F 81% 30.05 in 6.0 mi NW 8.1 mph - 0.01 in Snow Light Snow
3:51 AM 25.0 °F 19.3 °F 19.9 °F 81% 30.04 in 4.0 mi NW 4.6 mph - 0.01 in Snow Light Snow
4:51 AM 25.0 °F 18.1 °F 19.9 °F 81% 30.04 in 9.0 mi NW 5.8 mph - 0.00 in Snow Light Snow
5:51 AM 25.0 °F 19.3 °F 19.0 °F 78% 30.04 in 9.0 mi NNW 4.6 mph - 0.00 in Snow Light Snow
6:51 AM 24.8 °F 16.9 °F 17.6 °F 74% 30.01 in 9.0 mi NNW 6.9 mph - N/A Snow Light Snow
7:51 AM 25.0 °F 17.1 °F 16.0 °F 69% 30.05 in 8.0 mi NNW 6.9 mph - 0.00 in Snow Light Snow
8:51 AM 24.8 °F 14.6 °F 17.6 °F 74% 30.03 in 4.0 mi NNW 10.4 mph - N/A Snow Light Snow
9:41 AM 24.8 °F 14.6 °F 17.6 °F 74% 30.03 in 7.0 mi NW 10.4 mph - 0.00 in Snow Light Snow
9:51 AM 25.0 °F 14.8 °F 17.1 °F 72% 30.07 in 6.0 mi NW 10.4 mph - 0.01 in Snow Light Snow
10:51 AM 26.1 °F 17.6 °F 12.9 °F 58% 30.06 in 9.0 mi North 8.1 mph - 0.00 in   Overcast
11:51 AM 27.0 °F 18.7 °F 15.1 °F 61% 30.06 in 10.0 mi NNW 8.1 mph - N/A   Overcast
12:51 PM 28.0 °F 18.1 °F 16.0 °F 61% 30.04 in 9.0 mi NW 11.5 mph - 0.00 in Snow Light Snow
1:51 PM 28.0 °F 17.0 °F 17.1 °F 63% 30.02 in 9.0 mi NW 13.8 mph - 0.00 in Snow Light Snow
2:51 PM 28.9 °F 21.1 °F 16.0 °F 58% 30.02 in 10.0 mi WNW 8.1 mph - 0.00 in   Overcast
3:51 PM 30.2 °F 21.3 °F 15.8 °F 55% 30.00 in 10.0 mi NW 10.4 mph - N/A   Mostly Cloudy
4:51 PM 30.2 °F 23.4 °F 14.0 °F 51% 30.00 in 10.0 mi NW 6.9 mph - N/A   Overcast
5:51 PM 28.9 °F 21.9 °F 15.1 °F 56% 30.04 in 10.0 mi NW 6.9 mph - N/A   Mostly Cloudy
6:51 PM 28.9 °F 25.2 °F 15.1 °F 56% 30.05 in 10.0 mi NNW 3.5 mph - N/A   Overcast
7:51 PM 28.0 °F 24.2 °F 16.0 °F 61% 30.07 in 10.0 mi North 3.5 mph - N/A   Mostly Cloudy
8:51 PM 27.0 °F 23.0 °F 17.1 °F 66% 30.08 in 10.0 mi North 3.5 mph - N/A   Overcast
9:51 PM 26.1 °F - 17.1 °F 69% 30.09 in 10.0 mi Calm Calm - N/A   Overcast
10:51 PM 27.0 °F - 17.1 °F 66% 30.08 in 10.0 mi Calm Calm - N/A   Overcast
11:51 PM 26.1 °F - 18.0 °F 71% 30.09 in 10.0 mi Calm Calm - N/A   Overcast